TimeCDT,TemperatureF,Dew PointF,Humidity,Sea Level PressureIn,VisibilityMPH,Wind Direction,Wind SpeedMPH,Gust SpeedMPH,PrecipitationIn,Events,Conditions,WindDirDegrees,DateUTC
12:52 AM,63.0,61.0,93,30.14,10.0,Calm,Calm,-,N/A,,Clear,0,2013-08-10 05:52:00
1:52 AM,63.0,60.1,90,30.15,7.0,Calm,Calm,-,N/A,,Clear,0,2013-08-10 06:52:00
2:52 AM,62.1,59.0,90,30.14,8.0,Calm,Calm,-,N/A,,Clear,0,2013-08-10 07:52:00
3:52 AM,61.0,57.9,90,30.14,7.0,Calm,Calm,-,N/A,,Clear,0,2013-08-10 08:52:00
4:52 AM,60.1,57.9,93,30.13,10.0,Calm,Calm,-,N/A,,Clear,0,2013-08-10 09:52:00
5:52 AM,61.0,59.0,93,30.13,8.0,Calm,Calm,-,N/A,,Clear,0,2013-08-10 10:52:00
6:52 AM,61.0,57.9,90,30.14,7.0,Calm,Calm,-,N/A,,Clear,0,2013-08-10 11:52:00
7:52 AM,66.9,62.1,84,30.15,8.0,North,3.5,-,N/A,,Clear,10,2013-08-10 12:52:00
8:52 AM,71.1,63.0,75,30.17,10.0,NNE,3.5,-,N/A,,Clear,20,2013-08-10 13:52:00
9:52 AM,73.9,64.0,71,30.18,10.0,NNE,6.9,-,N/A,,Clear,20,2013-08-10 14:52:00
10:52 AM,77.0,64.0,64,30.18,10.0,ENE,8.1,-,N/A,,Clear,60,2013-08-10 15:52:00
11:52 AM,79.0,64.0,60,30.18,10.0,Variable,3.5,-,N/A,,Partly Cloudy,0,2013-08-10 16:52:00
12:52 PM,81.0,63.0,54,30.16,10.0,Calm,Calm,-,N/A,,Partly Cloudy,0,2013-08-10 17:52:00
1:52 PM,82.0,63.0,52,30.15,10.0,ESE,5.8,-,N/A,,Scattered Clouds,120,2013-08-10 18:52:00
2:52 PM,82.0,63.0,52,30.14,10.0,SSE,8.1,-,N/A,,Mostly Cloudy,150,2013-08-10 19:52:00
3:52 PM,82.9,64.0,53,30.11,10.0,SE,5.8,-,N/A,,Partly Cloudy,130,2013-08-10 20:52:00
4:52 PM,82.9,64.0,53,30.10,10.0,SSE,4.6,-,N/A,,Partly Cloudy,150,2013-08-10 21:52:00
5:52 PM,82.0,63.0,52,30.09,10.0,ESE,4.6,-,N/A,,Mostly Cloudy,110,2013-08-10 22:52:00
6:52 PM,82.0,63.0,52,30.06,10.0,SSE,5.8,-,N/A,,Clear,150,2013-08-10 23:52:00
7:52 PM,79.0,66.9,66,30.04,10.0,East,3.5,-,N/A,,Clear,100,2013-08-11 00:52:00
8:52 PM,73.0,66.9,81,30.05,10.0,Calm,Calm,-,N/A,,Clear,0,2013-08-11 01:52:00
9:52 PM,71.1,64.9,81,30.07,10.0,East,3.5,-,N/A,,Clear,100,2013-08-11 02:52:00
10:52 PM,69.1,64.9,87,30.09,10.0,East,4.6,-,N/A,,Clear,100,2013-08-11 03:52:00
11:52 PM,69.1,64.9,87,30.10,10.0,ESE,4.6,-,N/A,,Clear,110,2013-08-11 04:52:00